AD8BW Weather Reports


time (UTC)temp
F
wind
direction
speed
knots
gust
knots
rain 1hr
in
rain 24hr
in
rain mn
in
humidity
%
barometer
mb
20260831212355 74 159 3.5 7.8 0.00 0.01 0.01 90 1014.7
20260831211356 74 185 1.7 6.1 0.00 0.01 0.01 90 1015.1
20260831210356 74 161 3.5 7.8 0.00 0.01 0.01 90 1014.9
20260831205354 74 191 3.5 6.1 0.00 0.01 0.01 90 1014.8
20260831204407 74 166 3.5 9.6 0.00 0.01 0.01 90 1014.9
20260831203356 74 169 3.5 7.8 0.00 0.01 0.01 90 1015.1
20260831202353 73 139 3.5 7.8 0.00 0.01 0.01 91 1015.1
20260831201355 73 138 3.5 6.1 0.00 0.01 0.01 91 1015.5
20260831200354 73 130 1.7 6.1 0.00 0.01 0.01 92 1015.5
20260831195354 73 142 1.7 6.1 0.01 0.01 0.01 92 1015.7
20260831194352 73 55 0.0 4.3 0.01 0.01 0.01 93 1015.8
20260831193356 73 50 0.0 3.5 0.01 0.01 0.01 93 1016.1
20260831192353 73 42 0.0 3.5 0.01 0.01 0.01 92 1016.4
20260831191351 73 41 0.0 4.3 0.01 0.01 0.01 92 1016.7
20260831190352 73 40 0.0 3.5 0.01 0.01 0.01 91 1016.5
20260831185351 73 31 0.0 0.0 0.00 0.00 0.00 91 1016.6
20260831184352 73 19 0.0 4.3 0.00 0.00 0.00 91 1016.7
20260831183351 74 19 1.7 4.3 0.00 0.00 0.00 90 1016.9
20260831182352 74 0 0.0 1.7 0.00 0.00 0.00 90 1017.0
20260831181353 73 146 0.0 1.7 0.00 0.00 0.00 89 1016.1
20260831180348 73 146 1.7 4.3 0.00 0.00 0.00 89 1015.9
20260831175350 73 157 1.7 4.3 0.00 0.00 0.00 89 1015.9
20260831174350 73 185 1.7 4.3 0.00 0.00 0.00 91 1016.0
20260831173350 73 160 0.0 3.5 0.00 0.00 0.00 90 1016.3
20260831172350 73 315 0.0 0.0 0.00 0.00 0.00 88 1016.2
20260831171350 73 315 0.0 0.0 0.00 0.00 0.00 88 1016.5
20260831170346 74 315 0.0 1.7 0.00 0.01 0.00 87 1016.5
20260831165347 74 315 0.0 0.0 0.00 0.01 0.00 85 1016.3
20260831164345 74 315 0.0 0.0 0.00 0.01 0.00 85 1016.6
20260831163345 74 315 0.0 4.3 0.00 0.02 0.00 84 1017.3
20260831162344 75 315 1.7 4.3 0.00 0.03 0.00 83 1017.9
20260831161342 75 315 1.7 6.1 0.00 0.07 0.00 84 1018.0
20260831160344 75 321 1.7 6.1 0.00 0.15 0.00 84 1018.0
20260831155342 74 322 0.0 4.3 0.00 0.18 0.00 85 1017.8
20260831154339 74 318 0.0 3.5 0.00 0.20 0.00 87 1017.5
20260831153340 73 178 0.0 1.7 0.00 0.23 0.00 88 1017.4
20260831152340 73 257 0.0 3.5 0.00 0.25 0.00 89 1017.3
20260831151340 73 177 0.0 1.7 0.00 0.26 0.00 90 1017.2
20260831150336 72 177 1.7 6.1 0.00 0.29 0.00 91 1017.0
20260831145343 72 181 0.0 3.5 0.00 0.30 0.00 92 1016.9
20260831144334 72 226 0.0 1.7 0.00 0.32 0.00 92 1016.7
20260831143332 72 211 0.0 4.3 0.00 0.34 0.00 93 1016.5
20260831142332 71 192 0.0 3.5 0.00 0.36 0.00 93 1016.5
20260831141333 71 192 0.0 3.5 0.00 0.40 0.00 93 1016.6
20260831140334 71 148 0.0 0.0 0.00 0.44 0.00 93 1016.6
20260831135330 71 198 0.0 0.0 0.00 0.50 0.00 93 1016.5
20260831134333 70 198 0.0 0.0 0.00 0.55 0.00 93 1016.5
20260831133330 70 198 0.0 0.0 0.00 0.60 0.00 93 1016.3
20260831132331 70 198 0.0 0.0 0.00 0.66 0.00 93 1016.4
20260831131326 70 198 0.0 0.0 0.00 0.73 0.00 93 1016.5
20260831130327 70 198 0.0 0.0 0.00 0.78 0.00 93 1016.3
20260831125326 70 192 0.0 1.7 0.00 0.82 0.00 93 1016.1
20260831124326 70 188 0.0 3.5 0.00 0.84 0.00 93 1016.2
20260831123325 69 180 0.0 0.0 0.00 0.87 0.00 93 1016.2
20260831122326 69 180 0.0 0.0 0.00 0.90 0.00 93 1016.2
20260831121325 69 180 0.0 0.0 0.00 0.93 0.00 93 1016.2
20260831120326 69 180 0.0 0.0 0.00 0.95 0.00 93 1016.2
20260831115326 69 180 0.0 0.0 0.00 0.96 0.00 92 1016.2
20260831114323 69 180 0.0 0.0 0.00 0.96 0.00 92 1016.3
20260831113322 69 180 0.0 0.0 0.00 0.96 0.00 92 1016.4
20260831112322 69 180 0.0 0.0 0.00 0.97 0.00 92 1016.4
20260831111322 69 180 0.0 0.0 0.00 0.97 0.00 92 1016.4
20260831110323 69 180 0.0 0.0 0.00 0.97 0.00 92 1016.5
20260831105321 69 180 0.0 0.0 0.00 0.97 0.00 92 1016.4
20260831104324 69 180 0.0 0.0 0.00 0.97 0.00 92 1016.3
20260831103325 69 180 0.0 0.0 0.00 0.97 0.00 92 1016.3
20260831102323 69 180 0.0 0.0 0.00 0.97 0.00 92 1016.2
20260831101326 69 180 0.0 0.0 0.00 0.97 0.00 92 1016.2
20260831100323 69 180 0.0 1.7 0.00 0.97 0.00 92 1016.2
20260831095320 69 180 0.0 0.0 0.00 0.97 0.00 92 1016.1
20260831094321 69 180 0.0 0.0 0.00 0.98 0.00 92 1016.0
20260831093315 69 180 0.0 0.0 0.00 0.99 0.00 92 1016.2
20260831092316 69 180 0.0 0.0 0.00 0.99 0.00 92 1016.1
20260831091316 69 180 0.0 0.0 0.00 0.99 0.00 92 1016.2
20260831090316 69 180 0.0 1.7 0.00 0.99 0.00 92 1016.2
20260831085317 69 180 0.0 3.5 0.00 0.99 0.00 91 1016.2
20260831084314 69 184 0.0 3.5 0.00 1.00 0.00 91 1016.1
20260831083319 69 180 0.0 1.7 0.00 1.01 0.00 91 1016.2
20260831082316 69 180 0.0 0.0 0.00 1.01 0.00 90 1015.9
20260831081318 69 180 0.0 0.0 0.00 1.01 0.00 90 1015.9
20260831080313 69 180 0.0 0.0 0.00 1.01 0.00 90 1015.9
20260831075315 69 180 0.0 0.0 0.00 1.01 0.00 90 1016.1
20260831074313 69 180 0.0 0.0 0.00 1.01 0.00 90 1016.0
20260831073323 69 180 0.0 0.0 0.00 1.01 0.00 90 1016.1
20260831072319 69 180 0.0 1.7 0.00 1.01 0.00 89 1016.1
20260831071312 70 180 0.0 1.7 0.00 1.01 0.00 89 1016.1
20260831070312 70 180 0.0 0.0 0.00 1.01 0.00 89 1016.3
20260831065310 70 180 0.0 0.0 0.00 1.01 0.00 89 1016.4
20260831064809 70 180 0.0 0.0 0.00 1.01 0.00 89 1016.5
20260831063308 70 180 0.0 1.7 0.00 1.01 0.00 89 1016.5
20260831062308 70 180 0.0 1.7 0.00 1.01 0.00 89 1016.5
20260831061311 70 180 0.0 1.7 0.00 1.01 0.00 89 1016.5
20260831060311 70 180 0.0 0.0 0.00 1.01 0.00 89 1016.6
20260831055308 70 180 0.0 1.7 0.00 1.01 0.00 89 1016.6
20260831054309 70 180 0.0 4.3 0.00 1.01 0.00 89 1016.6
20260831053311 70 185 0.0 3.5 0.00 1.01 0.00 89 1016.7
20260831052307 70 184 0.0 6.1 0.00 1.01 0.00 90 1016.6
20260831051308 70 188 1.7 4.3 0.00 1.01 0.00 90 1016.7
20260831050307 70 188 1.7 3.5 0.00 1.01 0.00 90 1016.8
20260831045306 70 188 1.7 6.1 0.00 1.01 0.00 90 1016.8
20260831044309 70 184 1.7 6.1 0.00 1.01 0.00 91 1016.8
20260831043306 70 182 3.5 7.8 0.00 1.01 0.00 91 1016.8
20260831042309 70 163 3.5 9.6 0.00 1.01 0.00 91 1016.7
20260831041309 70 175 1.7 6.1 0.00 1.01 0.00 91 1016.7
20260831040308 70 169 3.5 9.6 0.00 1.01 0.00 91 1016.8
20260831035307 69 188 3.5 7.8 0.00 1.01 1.01 92 1016.9
20260831034310 69 188 3.5 10.4 0.00 1.01 1.01 92 1016.9
20260831033306 69 193 1.7 6.1 0.00 1.01 1.01 91 1016.9
20260831032310 69 198 1.7 4.3 0.00 1.01 1.01 92 1016.8
20260831031301 69 190 1.7 6.1 0.00 1.01 1.01 92 1016.8
20260831030303 69 192 0.0 4.3 0.00 1.01 1.01 92 1016.8
20260831025300 69 174 1.7 3.5 0.00 1.01 1.01 92 1016.8
20260831024302 69 196 0.0 3.5 0.00 1.01 1.01 92 1016.8
20260831023303 69 192 0.0 3.5 0.00 1.01 1.01 92 1016.7
20260831022300 69 175 0.0 3.5 0.00 1.01 1.01 92 1016.7
20260831021300 69 210 0.0 3.5 0.00 1.01 1.01 92 1016.7
20260831020304 69 202 1.7 3.5 0.00 1.01 1.01 92 1016.6
20260831015313 69 176 0.0 4.3 0.00 1.01 1.01 92 1016.6
20260831014258 69 188 1.7 4.3 0.00 1.01 1.01 92 1016.5
20260831013255 69 190 0.0 0.0 0.00 1.01 1.01 92 1016.5
20260831012258 69 142 0.0 0.0 0.00 1.01 1.01 92 1016.5
20260831011256 69 146 1.7 4.3 0.00 1.01 1.01 92 1016.5
20260831010256 69 142 1.7 4.3 0.00 1.01 1.01 92 1016.4
20260831005253 70 157 1.7 6.1 0.00 1.01 1.01 92 1016.4
20260831004253 70 160 1.7 4.3 0.00 1.01 1.01 92 1016.3
20260831003256 70 140 1.7 4.3 0.00 1.01 1.01 92 1016.2
20260831002257 70 145 1.7 3.5 0.00 1.01 1.01 92 1016.4
20260831001249 70 190 1.7 4.3 0.00 1.01 1.01 92 1016.3
20260831000251 70 155 1.7 4.3 0.00 1.01 1.01 92 1016.2
20260830235249 70 148 3.5 6.1 0.00 1.01 1.01 91 1016.2
20260830234250 70 136 1.7 6.1 0.00 1.01 1.01 91 1016.4
20260830233247 70 158 3.5 9.6 0.00 1.01 1.01 91 1016.4
20260830232247 70 140 3.5 7.8 0.00 1.01 1.01 91 1016.4
20260830231246 70 142 1.7 4.3 0.00 1.01 1.01 90 1016.5
20260830230243 70 146 3.5 6.1 0.00 1.01 1.01 90 1016.7
20260830225241 70 156 1.7 6.1 0.00 1.01 1.01 90 1016.9
20260830224242 70 207 0.0 0.0 0.00 1.01 1.01 90 1017.0
20260830223240 70 207 0.0 1.7 0.00 1.01 1.01 90 1017.1
20260830222243 70 207 1.7 4.3 0.00 1.01 1.01 90 1017.0
20260830221242 70 164 1.7 6.1 0.00 1.01 1.01 90 1017.2
20260830220243 70 171 1.7 4.3 0.00 1.01 1.01 91 1017.0
20260830215245 70 153 0.0 0.0 0.00 1.01 1.01 91 1016.9
20260830214247 70 159 0.0 3.5 0.00 1.01 1.01 92 1016.8
20260830213241 70 198 3.5 6.1 0.00 1.01 1.01 92 1017.1